Regional Weather Roundup
Issued by NWS

Home | Current Version | Previous Version | Graphics & Text | Print | Product List | Glossary On
Versions: 1 2 3 4 5 6 7 8 9 10 11 12 13 14 15 16 17 18 19 20 21 22 23 24 25 26 27 28 29 30 31 32 33 34 35 36 37 38 39 40 41 42 43 44 45 46 47 48 49 50
000
ASUS43 KBIS 192210
RWRND

NORTH DAKOTA REGIONAL WEATHER ROUNDUP
NATIONAL WEATHER SERVICE BISMARCK ND
500 PM CDT SUN OCT 19 2014

NOTE: "FAIR" INDICATES FEW OR NO CLOUDS BELOW 12,000 FEET WITH NO
SIGNIFICANT WEATHER AND/OR OBSTRUCTIONS TO VISIBILITY.


NDZ001>003-009>011-017-192300-
NORTHWEST NORTH DAKOTA

CITY           SKY/WX    TMP DP  RH WIND       PRES   REMARKS
WILLISTON      SUNNY     69  38  32 VRB5      29.98S
MINOT          SUNNY     68  35  29 NW10      29.94R
MINOT AFB      SUNNY     68  37  32 NW10      29.93R
$$

NDZ018>021-031>035-040>046-192300-
SOUTHWEST NORTH DAKOTA

CITY           SKY/WX    TMP DP  RH WIND       PRES   REMARKS
BISMARCK       SUNNY     72  39  30 NW17      29.96R
DICKINSON      SUNNY     69  37  30 N6        29.99S
GARRISON         N/A     69  31  24 N14       29.96R
HETTINGER ARPT SUNNY     71  35  26 N10       30.01S
$$

NDZ004>008-012>016-024-026-027-054-192300-
NORTHEAST NORTH DAKOTA

CITY           SKY/WX    TMP DP  RH WIND       PRES   REMARKS
GRAND FORKS    MOSUNNY   66  43  43 N13       29.84R
GRND FRKS AFB  SUNNY     66  41  39 N12G20    29.85R
DEVILS LAKE    SUNNY     66  39  37 NW14      29.87R
$$

NDZ022-023-025-028>030-036>039-047>053-192300-
SOUTHEAST NORTH DAKOTA

CITY           SKY/WX    TMP DP  RH WIND       PRES   REMARKS
FARGO          SUNNY     69  41  36 N22       29.84R
JAMESTOWN      SUNNY     67  38  34 N18G25    29.89R
$$



USA.gov is the U.S. government's official web portal to all federal, state and local government web resources and services.